Weather in Temurmalik

Tajikistan     38°02′57″N   69°35′16″E
В апреле 2022 года жителям России запретили посещать сайт meteo.paraplan.net по решению Генеральной прокуратуры. Аудитория сайта уменьшилась в 10 раз. Владельцы сайта не видят смысла в поддержке погодного сервера в таких условиях. Сайт будет закрыт в октябре.
temp.,
°C
wind,
m/s
gust,
m/s
humid.,
%
clouds,
%
prec.,
mm/h
press.,
hPa
HPBL,
m
25 september, sun
sun2523:00+19nne33220 0.0 101124
02:00+18nne33260 0.0 101132
05:00+17nne33270 0.0 101125
08:00+21nne22200 0.0 1012134
11:00+28ssw32120 0.0 10111408
14:00+30sw32100 0.0 10082425
17:00+30sw32110 0.0 10081563
20:00+22n11170 0.0 101111
26 september, mon
mon2623:00+19nne33210 0.0 101430
02:00+18nne44220 0.0 101442
05:00+17nne44230 0.0 101536
08:00+22ne23180 0.0 1016126
11:00+29ssw33110 0.0 10151336
14:00+31sw33100 0.0 10132461
17:00+29sw44100 0.0 10131352
20:00+22n11170 0.0 101511
27 september, tue
tue2723:00+19nne33200 0.0 101728
02:00+18nne33210 0.0 101627
05:00+17nne33230 0.0 101625
08:00+21ne22170 0.0 1016116
11:00+28ssw32110 0.0 10151235
14:00+30sw32100 0.0 10122411
17:00+29wsw33110 0.0 10111370
20:00+21nnw11200 0.0 101411
28 september, wed
wed2823:00+18nne33210 0.0 101526
02:00+17nne43230 0.0 101533
05:00+16nne33250 0.0 101430
08:00+20ne23210 0.0 1014137
11:00+27sw21170 0.0 10121325
14:00+30sw32130 0.0 10092163
17:00+29sw32130 0.0 10081799
20:00+21n11220 0.0 101011
29 september, thu
thu2923:00+18nne44260 0.0 101137
02:00+17nne45270 0.0 101154
05:00+16nne45290 0.0 101161
08:00+21nne34210 0.0 1011151
11:00+29ssw11130 0.0 10091392
14:00+31sw21100 0.0 10062082
17:00+30ssw23100 0.0 1005107
20:00+22nnw11180 0.0 100811